Vorticity
nan nan nan nan nan nan nan nan nan nan nan nan nan nan nan nan nan nan nan nan nan nan nan nan nan nan nan nan nan nan nan nan nan nan nan nan nan nan nan nan nan nan nan nan
nan 7 7 8 9 22 22 11 10 10 11 10 8 8 10 10 11 7 8 9 11 9 9 11 11 7 9 12 7 11 10 6 6 8 9 14 13 8 5 7 16 14 5 nan
nan 6 7 7 8 19 24 11 11 12 8 7 7 11 13 9 6 9 9 9 12 10 7 8 11 10 9 7 8 8 10 14 9 6 10 10 12 13 10 3 7 13 4 nan
nan 7 7 7 9 21 27 11 9 9 8 8 8 5 7 9 10 14 8 12 12 3 7 12 11 9 9 10 11 7 8 11 11 9 10 7 11 12 11 3 4 4 11 nan
nan 8 8 7 9 29 24 7 9 8 9 10 13 11 8 10 15 10 7 9 13 7 5 5 12 12 8 11 11 9 9 9 11 13 14 9 6 12 12 8 3 4 11 nan
nan 7 7 7 12 26 18 10 11 10 7 7 11 9 4 8 15 10 9 11 9 17 9 7 10 13 15 14 10 9 8 9 8 12 12 5 14 22 9 6 13 13 6 nan
nan 8 7 7 8 17 17 11 11 12 9 9 6 1 11 11 5 5 10 11 12 11 14 12 10 10 12 12 10 9 8 9 8 11 7 8 11 12 22 13 6 9 4 nan
nan 8 8 8 7 11 17 11 11 12 13 14 14 11 5 6 12 15 11 12 9 9 12 10 8 7 10 12 9 8 11 13 10 12 5 5 16 14 14 15 11 17 12 nan
nan 10 10 8 9 14 16 11 11 8 13 10 11 18 15 14 11 11 15 16 10 14 11 11 11 9 9 9 5 10 12 13 12 8 11 8 8 12 10 11 11 17 23 nan
nan 8 11 12 11 14 16 12 10 8 9 6 9 12 10 12 19 15 16 9 10 13 12 11 11 9 10 12 10 7 10 13 13 6 6 9 16 12 8 9 10 12 20 nan
nan 8 8 14 16 13 14 14 10 8 8 10 8 3 3 7 7 7 13 14 10 9 11 11 10 11 11 9 10 12 9 8 9 11 11 14 8 14 13 6 14 15 16 nan
nan 11 9 9 14 15 14 14 11 11 9 7 8 12 17 14 5 9 5 7 13 14 13 11 11 11 16 12 5 9 14 11 13 10 7 10 11 10 15 20 14 13 16 nan
nan 9 11 11 9 13 16 15 10 11 10 12 12 15 19 24 22 5 6 8 7 9 13 14 13 11 12 16 13 10 5 11 19 12 9 11 10 10 15 17 15 15 14 nan
nan 11 14 12 9 9 16 15 10 10 11 12 12 10 9 19 16 5 2 4 9 10 9 12 13 8 8 14 13 11 7 10 12 13 10 8 9 14 12 10 12 11 12 nan
nan 10 10 10 12 17 18 15 15 13 10 9 8 11 15 19 14 6 3 5 8 11 12 11 8 11 13 12 10 6 11 16 13 11 14 14 16 12 11 11 9 10 11 nan
nan 11 9 10 12 21 19 12 12 13 11 11 11 14 19 15 13 14 14 11 11 10 10 12 10 11 13 10 6 5 14 20 22 15 13 16 12 9 12 11 8 10 9 nan
nan 10 10 10 17 18 11 11 11 12 9 9 11 12 11 11 12 12 16 15 14 13 12 10 8 9 13 14 11 8 8 13 17 20 10 5 12 13 11 12 10 8 7 nan
nan 10 12 19 21 17 13 5 5 14 14 12 11 11 6 10 14 13 13 12 11 8 14 14 11 11 12 10 9 12 12 7 8 13 14 12 11 10 8 9 12 9 8 nan
nan 18 23 23 16 10 3 7 19 16 9 9 10 11 10 13 15 11 10 11 12 9 12 13 13 12 12 11 9 8 11 14 9 7 10 8 10 9 8 9 10 9 9 nan
nan 22 17 11 3 8 17 20 15 11 12 11 9 10 10 11 14 11 11 13 11 11 10 11 10 10 8 10 10 9 9 10 10 9 9 10 9 8 9 10 10 10 10 nan
nan 12 11 7 12 19 14 10 12 14 11 9 11 10 12 11 11 11 12 12 11 13 10 12 10 8 7 8 9 10 10 10 11 10 9 10 10 10 10 9 10 10 10 nan
nan 12 12 11 13 14 12 11 10 12 10 11 10 11 14 10 12 11 10 15 13 10 12 11 10 8 9 11 9 10 9 10 9 10 10 10 12 12 11 10 10 10 11 nan
nan 10 11 14 11 11 12 13 12 9 9 10 10 14 13 11 14 12 12 12 12 11 11 12 10 10 10 10 9 9 10 9 9 9 10 10 10 11 12 12 11 11 11 nan
nan 9 12 13 13 11 10 11 12 10 9 10 14 14 13 10 12 13 12 12 13 13 10 11 9 8 10 10 10 9 9 9 10 11 11 10 10 11 10 11 11 11 11 nan
nan 11 11 12 13 10 9 10 12 11 11 13 15 14 11 12 11 13 9 14 13 11 12 11 8 9 11 9 9 10 9 11 12 13 12 10 11 11 11 10 11 12 11 nan
nan 10 11 13 11 9 11 11 13 10 16 16 11 12 8 12 11 10 14 12 10 11 10 11 11 10 9 8 9 11 11 11 12 11 10 11 12 12 12 12 13 12 13 nan
nan nan nan nan nan nan nan nan nan nan nan nan nan nan nan nan nan nan nan nan nan nan nan nan nan nan nan nan nan nan nan nan nan nan nan nan nan nan nan nan nan nan nan nan
CAPE
4 1 0 0 0 0 0 0 0 0 0 0 0 0 0 0 0 0 0 0 0 0 0 0 0 0 0 0 0 0 0 0 0 0 0 0 0 0 0 0 0 0 0 2
4 1 0 0 0 0 0 0 0 0 0 0 0 0 0 0 0 0 0 0 0 0 0 0 0 0 0 0 0 0 0 0 0 0 0 0 0 0 0 0 0 0 0 0
1 2 2 0 0 0 0 0 0 0 0 0 0 0 0 0 0 0 0 0 0 0 0 0 0 0 0 0 0 0 0 0 0 0 0 0 0 0 0 0 0 0 0 0
2 1 1 0 0 0 0 0 0 0 0 0 0 0 0 0 0 0 0 0 0 0 0 0 0 0 0 0 0 0 0 0 0 0 0 0 0 0 0 0 0 0 0 0
5 4 4 1 0 0 1 14 0 0 0 0 0 0 0 0 0 0 0 0 0 0 0 0 0 0 0 0 0 0 0 0 0 0 0 0 0 0 0 0 0 0 0 0
16 6 4 3 0 0 0 1 1 10 4 0 0 0 0 0 0 0 0 0 0 0 0 0 0 0 0 0 0 0 0 0 0 0 0 0 0 0 0 0 0 0 0 0
33 31 9 4 2 0 0 19 24 22 2 6 4 0 0 0 0 0 0 0 0 0 0 0 0 0 0 0 0 0 0 0 0 0 0 0 0 0 0 0 0 0 0 0
36 35 36 23 6 4 0 17 11 25 40 18 4 0 5 0 0 0 0 0 0 0 0 0 0 0 0 0 0 0 0 0 0 0 0 0 0 0 0 0 0 0 0 0
38 43 39 35 37 26 2 9 5 22 22 0 3 12 0 0 0 0 0 0 0 0 0 0 0 0 0 0 0 0 0 0 0 0 0 0 0 0 0 0 0 0 0 0
45 49 50 50 53 46 38 19 0 4 18 2 2 4 26 18 1 0 0 0 0 0 0 0 0 0 0 0 0 0 0 0 0 0 0 0 0 0 0 0 0 0 0 0
14 27 53 68 63 56 48 38 0 0 8 0 0 0 4 4 7 13 0 1 0 0 0 0 0 0 0 0 0 0 0 0 0 0 0 0 0 0 0 0 0 0 0 0
29 21 27 68 95 76 51 4 17 0 10 0 0 0 0 0 5 22 11 6 2 0 6 13 7 1 0 0 0 0 0 0 0 0 0 0 0 0 0 0 0 0 0 0
68 92 103 73 94 115 62 65 50 65 96 0 0 0 0 0 0 0 28 4 4 2 8 5 0 9 3 2 0 0 0 0 0 0 0 5 6 5 3 1 0 0 0 0
76 126 126 98 56 97 84 38 37 28 95 24 0 3 0 9 0 2 3 5 9 4 4 21 0 9 8 16 6 0 0 0 0 2 6 2 4 3 1 3 0 0 0 0
100 123 93 99 103 93 54 41 50 46 35 4 0 0 0 1 9 3 2 18 13 19 15 5 12 3 1 1 1 2 2 1 0 0 2 0 8 6 8 2 5 7 2 0
74 110 102 106 89 82 37 0 3 3 4 20 9 0 0 0 16 27 9 3 28 21 25 24 3 9 6 0 0 0 1 1 0 1 1 1 3 7 10 6 5 1 0 0
85 105 134 88 86 40 17 14 55 27 19 4 7 2 0 4 1 4 16 11 22 32 12 6 3 4 2 0 0 1 0 0 0 0 0 0 0 1 2 2 1 0 0 0
88 110 88 68 49 39 32 21 8 15 9 8 7 0 0 0 3 10 14 12 10 5 3 7 6 7 5 0 0 0 1 1 0 2 2 1 1 0 0 0 0 0 0 0
50 27 13 1 48 15 9 0 0 13 35 2 7 21 1 0 1 11 6 29 4 18 1 3 6 7 0 0 0 0 0 0 3 0 0 0 0 0 0 0 0 0 0 0
4 1 0 11 1 0 0 2 30 18 23 15 7 0 1 0 0 23 0 10 11 2 18 28 2 0 0 0 0 1 1 1 0 0 0 0 0 0 0 0 0 0 0 0
0 0 6 0 0 0 4 2 0 0 1 0 2 4 1 3 2 0 2 0 2 0 5 17 8 0 0 1 1 1 0 0 0 0 0 0 0 0 0 0 0 0 0 0
0 3 0 0 0 0 0 0 1 1 1 1 0 0 1 2 0 6 0 1 0 0 7 0 0 1 0 4 0 0 0 0 0 0 0 0 0 0 0 0 0 0 0 0
0 0 0 0 0 0 0 1 2 2 0 2 1 0 0 0 0 0 0 0 0 0 0 0 0 5 2 0 0 0 0 0 0 0 0 0 0 0 0 0 0 0 0 0
0 0 0 0 0 4 10 4 2 4 6 3 2 0 0 0 0 0 0 0 0 0 0 0 0 1 0 0 0 0 0 0 0 0 0 0 0 0 0 0 0 0 0 0
0 0 0 0 16 2 2 1 2 11 6 3 0 0 0 0 0 0 0 0 0 2 5 9 1 0 0 0 0 0 0 0 0 0 0 0 0 0 0 0 0 0 0 0
0 0 0 0 3 0 0 1 5 3 0 0 0 0 0 0 0 0 0 0 0 7 4 2 0 0 0 0 0 0 0 0 0 0 0 0 0 0 0 0 0 0 0 0
0 1 2 0 4 7 6 5 4 0 0 0 0 0 0 0 0 0 0 0 6 2 0 0 0 0 0 0 0 0 0 0 0 0 0 0 0 0 0 0 0 0 0 0